Location: Litvinovka
(48.6667°N, 34.3500°E)
Time: 03:47:00
(UTC+00:00)

ATLAS 3B R/B - Pass Details

Date: 18 September 2020
Orbit: 1016 x 1179 km, 63.8° (Epoch: 04 October)

Event Time Altitude Azimuth Distance (km) Brightness Sun altitude
Rises 17:43:24 0° 315° (NW) 3,804 6.9 -19.1°
Reaches altitude 10° 17:46:14 10° 324° (NW) 2,868 5.9 -19.6°
Maximum altitude 17:52:28 37° 31° (NNE) 1,608 3.6 -20.5°
Enters shadow 17:55:34 26° 77° (ENE) 2,017 3.7 -20.9°
